Weather History for Vicksburg, MS

Change the Weather History Date:

Wednesday, November 21, 2012

  Actual Average Record
Temperature  
Mean Temperature 55 °F 54 °F  
Max Temperature 74 °F 66 °F 81 °F (2011)
Min Temperature 35 °F 42 °F 22 °F (1951)
Degree Days  
Heating Degree Days 10 11  
Month to date heating degree days 252 183  
Since 1 July heating degree days 407 285  
Cooling Degree Days 0 0  
Month to date cooling degree days 9 12  
Year to date cooling degree days 2397 2221  
Growing Degree Days 4 (Base 50)    
Moisture  
Dew Point 41 °F    
Average Humidity 69    
Maximum Humidity 100    
Minimum Humidity 38    
Precipitation  
Precipitation 0.00 in 0.17 in 2.95 in (1977)
Month to date precipitation 1.75 3.21  
Year to date precipitation 46.04 47.34  
Sea Level Pressure  
Sea Level Pressure 30.21 in    
Wind  
Wind Speed 3 mph (North)    
Max Wind Speed 12 mph    
Max Gust Speed 18 mph    
Visibility 5 miles    
Events Fog    
T = Trace of Precipitation, MM = Missing Value Source: NWS Daily Summary

Daily Weather History Graph

Daily Weather History Graph

Search for Another Location

Airport:

Trip Planner

Search our weather history database for the weather conditions in past years. The results will help you decide how hot, cold, wet, or windy it might be!

Date:

Astronomy

Nov. 21, 2012 Rise Set
Actual Time 6:39 AM CST 5:00 PM CST
Civil Twilight 6:12 AM CST 5:27 PM CST
Nautical Twilight 5:43 AM CST 5:56 PM CST
Astronomical Twilight 5:13 AM CST 6:26 PM CST
Moon 12:58 PM CST (11/21) 12:19 AM CST (11/21)
Length of Visible Light 11h 14m
Length of Day
10h 21m
First Quarter, 62% of the Moon is Illuminated
Nov 21
First Quarter
Nov 28
Full
Dec 6
Last Quarter
Dec 13
New
Dec 19
First Quarter

Hourly Weather History & Observations

Time (CST) Temp. Windchill Dew Point Humidity Pressure Visibility Wind Dir Wind Speed Gust Speed Precip Events Conditions
12:11 AM 41.0 °F - 39.2 °F 93% 30.17 in 1.8 mi Calm Calm - N/A   Clear
12:51 AM 39.2 °F - 39.2 °F 100% 30.16 in 0.5 mi Calm Calm - N/A Fog Fog
12:53 AM 39.9 °F - 39.0 °F 97% 30.19 in 0.8 mi Calm Calm - N/A   Clear
1:13 AM 39.2 °F - 39.2 °F 100% 30.16 in 2.5 mi Calm Calm - N/A   Clear
1:20 AM 39.2 °F - 39.2 °F 100% 30.16 in 6.0 mi Calm Calm - N/A   Clear
1:53 AM 39.0 °F - 37.9 °F 96% 30.19 in 10.0 mi Calm Calm - N/A   Partly Cloudy
2:49 AM 39.2 °F - 39.2 °F 100% 30.17 in 1.8 mi Calm Calm - N/A   Clear
2:53 AM 39.9 °F - 37.9 °F 93% 30.19 in 1.2 mi Calm Calm - N/A   Clear
3:30 AM 42.8 °F - 41.0 °F 93% 30.17 in 3.0 mi Calm Calm - N/A   Mostly Cloudy
3:53 AM 42.1 °F - 39.9 °F 92% 30.19 in 3.0 mi Calm Calm - N/A   Partly Cloudy
3:59 AM 41.0 °F - 39.2 °F 93% 30.17 in 1.8 mi Calm Calm - N/A   Partly Cloudy
4:10 AM 41.0 °F - 39.2 °F 93% 30.18 in 0.5 mi Calm Calm - N/A Fog Fog
4:44 AM 39.2 °F - 39.2 °F 100% 30.18 in 2.5 mi Calm Calm - N/A   Clear
4:51 AM 37.4 °F - 37.4 °F 100% 30.18 in 10.0 mi Calm Calm - N/A   Clear
4:53 AM 37.0 °F - 37.0 °F 100% 30.20 in 10.0 mi Calm Calm - N/A   Clear
5:10 AM 39.2 °F - 37.4 °F 93% 30.18 in 1.8 mi Calm Calm - N/A   Clear
5:20 AM 37.4 °F - 37.4 °F 100% 30.19 in 0.5 mi Calm Calm - N/A Fog Fog
5:53 AM 37.0 °F - 36.0 °F 96% 30.22 in 0.2 mi Calm Calm - N/A Fog Fog
6:28 AM 35.6 °F - 35.6 °F 100% 30.21 in 0.2 mi Calm Calm - N/A Fog Fog
6:53 AM 36.0 °F - 36.0 °F 100% 30.24 in 0.2 mi Calm Calm - N/A Fog Fog
7:06 AM 35.6 °F - 35.6 °F 100% 30.22 in 0.2 mi Calm Calm - N/A Fog Fog
7:36 AM 42.8 °F - 42.8 °F 100% 30.23 in 2.0 mi Calm Calm - N/A   Clear
7:43 AM 46.4 °F 45.2 °F 44.6 °F 93% 30.23 in 8.0 mi North 3.5 mph - N/A   Clear
7:53 AM 48.9 °F - 46.9 °F 93% 30.25 in 10.0 mi North 3.5 mph - N/A   Clear
8:53 AM 57.9 °F - 48.0 °F 70% 30.26 in 10.0 mi North 6.9 mph - N/A   Clear
9:53 AM 62.1 °F - 48.9 °F 62% 30.28 in 10.0 mi North 6.9 mph - N/A   Clear
10:53 AM 66.9 °F - 48.9 °F 52% 30.28 in 10.0 mi Variable 5.8 mph - N/A   Clear
11:53 AM 71.1 °F - 48.0 °F 44% 30.25 in 10.0 mi North 8.1 mph - N/A   Clear
12:53 PM 73.0 °F - 48.0 °F 41% 30.23 in 10.0 mi North 6.9 mph - N/A   Clear
1:53 PM 73.0 °F - 48.0 °F 41% 30.21 in 10.0 mi North 8.1 mph - N/A   Clear
2:53 PM 73.0 °F - 46.0 °F 38% 30.19 in 10.0 mi North 8.1 mph - N/A   Clear
3:53 PM 72.0 °F - 46.9 °F 41% 30.20 in 10.0 mi NNE 8.1 mph - N/A   Clear
4:53 PM 64.9 °F - 48.0 °F 54% 30.20 in 10.0 mi North 4.6 mph - N/A   Clear
5:53 PM 48.0 °F - 42.1 °F 80% 30.22 in 10.0 mi NNW 3.5 mph - N/A   Clear
6:53 PM 48.9 °F - 44.1 °F 83% 30.22 in 10.0 mi North 3.5 mph - N/A   Clear
7:53 PM 46.0 °F 44.8 °F 44.1 °F 93% 30.23 in 10.0 mi North 3.5 mph - N/A   Clear
8:53 PM 41.0 °F - 41.0 °F 100% 30.24 in 10.0 mi Calm Calm - N/A   Clear
9:49 PM 39.2 °F - 37.4 °F 93% 30.22 in 1.8 mi Calm Calm - N/A   Clear
9:50 PM 39.0 °F - 37.9 °F 96% 30.24 in 1.8 mi Calm Calm - N/A   Clear
9:57 PM 37.4 °F - 37.4 °F 100% 30.22 in 2.5 mi Calm Calm - N/A   Clear
10:10 PM 42.8 °F - 39.2 °F 87% 30.22 in 1.5 mi Calm Calm - N/A   Clear
10:27 PM 37.4 °F - 37.4 °F 100% 30.21 in 0.5 mi Calm Calm - N/A Fog Fog
10:53 PM 37.0 °F - 36.0 °F 96% 30.24 in 0.2 mi Calm Calm - N/A Fog Fog
11:53 PM 37.9 °F - 37.0 °F 97% 30.23 in 0.2 mi Calm Calm - N/A Fog Fog